ZKOGO NZTG-NZRO

Flight info

Callsign ZKOGO
Flight time 0h 8m
Altitude FL045
Route DCT
Aircraft DH8B/L-S/N

Departure

Time 2026-05-07 09:56
Airport Tauranga Airport (NZTG)

Arrival

Time 2026-05-07 10:04
Airport Rotorua Regional Airport (NZRO)
Time Latitude Longitude Altitude Speed Heading
2026-05-07 09:54 -37.67131 176.19874 20 ft 0 kts 88°
2026-05-07 09:54 -37.67266 176.18933 20 ft 0 kts 94°
2026-05-07 09:55 -37.67267 176.18934 20 ft 0 kts 94°
2026-05-07 09:55 -37.67272 176.19060 20 ft 35 kts 97°
2026-05-07 09:55 -37.67298 176.19442 20 ft 72 kts 88°
2026-05-07 09:55 -37.67287 176.20483 425 ft 135 kts 86°
2026-05-07 09:56 -37.67278 176.21655 1767 ft 140 kts 95°
2026-05-07 09:56 -37.67579 176.22693 2847 ft 140 kts 109°
2026-05-07 09:56 -37.67947 176.23728 3410 ft 154 kts 109°
2026-05-07 09:56 -37.68447 176.25062 3818 ft 186 kts 110°
2026-05-07 09:57 -37.69088 176.26632 4093 ft 216 kts 115°
2026-05-07 09:57 -37.69855 176.28356 4340 ft 235 kts 116°
2026-05-07 09:57 -37.70695 176.30223 4464 ft 256 kts 118°
2026-05-07 09:57 -37.71978 176.31878 4490 ft 274 kts 144°
2026-05-07 09:58 -37.73753 176.32757 4492 ft 278 kts 169°
2026-05-07 09:58 -37.75675 176.32963 4493 ft 280 kts 178°
2026-05-07 09:58 -37.77615 176.33003 4486 ft 281 kts 180°
2026-05-07 09:58 -37.79571 176.33010 4492 ft 281 kts 181°
2026-05-07 09:59 -37.81519 176.33007 4500 ft 281 kts 181°
2026-05-07 09:59 -37.83474 176.33001 4499 ft 281 kts 181°
2026-05-07 09:59 -37.85424 176.32992 4496 ft 281 kts 181°
2026-05-07 09:59 -37.87344 176.32984 4349 ft 274 kts 181°
2026-05-07 10:00 -37.89234 176.32973 4095 ft 271 kts 181°
2026-05-07 10:00 -37.91111 176.32953 3834 ft 270 kts 181°
2026-05-07 10:00 -37.92972 176.32922 3586 ft 267 kts 181°
2026-05-07 10:00 -37.94817 176.32880 3339 ft 264 kts 181°
2026-05-07 10:01 -37.96618 176.32829 3096 ft 255 kts 181°
2026-05-07 10:01 -37.98332 176.32767 3013 ft 241 kts 181°
2026-05-07 10:01 -37.99958 176.32700 3001 ft 227 kts 181°
2026-05-07 10:01 -38.01504 176.32635 2876 ft 221 kts 181°
2026-05-07 10:02 -38.03030 176.32693 2685 ft 219 kts 175°
2026-05-07 10:02 -38.04541 176.32827 2523 ft 217 kts 174°
2026-05-07 10:02 -38.05994 176.32956 2326 ft 198 kts 175°
2026-05-07 10:02 -38.07182 176.33036 2033 ft 139 kts 176°
2026-05-07 10:03 -38.07963 176.32982 1696 ft 98 kts 186°
2026-05-07 10:03 -38.08588 176.32718 1256 ft 89 kts 198°
2026-05-07 10:03 -38.09265 176.32422 1056 ft 131 kts 197°
2026-05-07 10:03 -38.09953 176.32075 962 ft 83 kts 202°
2026-05-07 10:04 -38.10349 176.31848 942 ft 41 kts 205°
2026-05-07 10:04 -38.10574 176.31718 942 ft 33 kts 205°
2026-05-07 10:04 -38.10756 176.31608 942 ft 13 kts 203°